LPE2198 SPHI-SEGU

Flight info

Callsign LPE2198
Flight time N/A
Altitude 37000
Route KOMLA UT331 VAKUD/N0399F240 W31 EVRED EVRED2
Aircraft A320/M-SDE3FGHIRWY/LB1

Departure

Time N/A
Airport Capitán FAP José A. Quiñones González International Airport (SPHI)

Arrival

Time 2026-04-25 01:38
Airport José Joaquín de Olmedo International Airport (SEGU)
Time Latitude Longitude Altitude Speed Heading
2026-04-25 01:38 -2.15989 -79.88604 28 ft 0 kts 330°
2026-04-25 01:40 -2.15972 -79.88607 28 ft 6 kts 358°
2026-04-25 01:40 -2.15941 -79.88591 28 ft 5 kts 30°
2026-04-25 01:40 -2.15916 -79.88576 28 ft 4 kts 30°
2026-04-25 01:41 -2.15896 -79.88565 28 ft 3 kts 29°
2026-04-25 01:41 -2.15880 -79.88556 29 ft 3 kts 29°
2026-04-25 01:41 -2.15844 -79.88536 29 ft 8 kts 30°
2026-04-25 01:41 -2.15787 -79.88501 28 ft 12 kts 31°
2026-04-25 01:42 -2.15703 -79.88454 28 ft 15 kts 30°
2026-04-25 01:42 -2.15614 -79.88404 28 ft 14 kts 28°
2026-04-25 01:42 -2.15534 -79.88357 28 ft 9 kts 32°
2026-04-25 01:42 -2.15485 -79.88326 28 ft 8 kts 30°
2026-04-25 01:43 -2.15439 -79.88300 28 ft 7 kts 29°
2026-04-25 01:43 -2.15397 -79.88276 28 ft 7 kts 28°
2026-04-25 01:43 -2.15359 -79.88256 28 ft 6 kts 28°
2026-04-25 01:43 -2.15326 -79.88238 28 ft 5 kts 31°
2026-04-25 01:44 -2.15295 -79.88221 28 ft 6 kts 19°
2026-04-25 01:44 -2.15255 -79.88240 28 ft 8 kts 305°
2026-04-25 01:44 -2.15225 -79.88293 29 ft 10 kts 300°
2026-04-25 01:44 -2.15187 -79.88358 29 ft 10 kts 300°
2026-04-25 01:45 -2.15145 -79.88398 29 ft 9 kts 351°
2026-04-25 01:45 -2.15084 -79.88368 29 ft 11 kts 32°
2026-04-25 01:45 -2.15025 -79.88335 29 ft 10 kts 29°
2026-04-25 01:45 -2.14989 -79.88315 29 ft 2 kts 29°
2026-04-25 01:46 -2.14985 -79.88320 29 ft 1 kts 316°
2026-04-25 01:46 -2.14980 -79.88333 29 ft 2 kts 293°
2026-04-25 01:46 -2.14970 -79.88353 29 ft 1 kts 299°
2026-04-25 01:46 -2.14968 -79.88357 29 ft 2 kts 301°
2026-04-25 01:47 -2.14959 -79.88371 29 ft 2 kts 300°
2026-04-25 01:47 -2.14957 -79.88376 29 ft 0 kts 300°